Location: T. Spence Memorial Observatory
(32.7356°N, 82.2098°W)
Time: 17:32:54
(UTC-04:00)

Cosmos 2219 - Visible Passes

Search period start: 27 May 2018 00:00
Search period end: 06 June 2018 00:00
Orbit: 833 x 861 km, 71.1° (Epoch: 27 May)

Date Brightness Start Highest point End Pass type
(mag) Time Alt. Az. Time Alt. Az. Time Alt. Az.
27 May 4.9 00:16:32 24° W 00:18:07 27° WNW 00:22:57 10° N visible
27 May 3.8 22:20:18 34° ESE 22:20:31 34° ESE 22:25:38 10° NE visible
28 May 5.0 00:02:07 20° W 00:04:37 28° WNW 00:09:30 10° N visible
28 May 3.9 22:05:38 29° SE 22:07:02 33° ESE 22:12:07 10° NE visible
28 May 5.0 23:47:26 15° WSW 23:51:07 28° WNW 23:56:02 10° N visible
29 May 3.9 21:50:32 20° SSE 21:53:34 32° ESE 21:58:36 10° NE visible
29 May 5.0 23:32:42 10° WSW 23:37:38 29° WNW 23:42:35 10° N visible
30 May 3.9 21:35:06 10° SSE 21:40:04 31° ESE 21:45:05 10° NE visible
30 May 5.0 23:19:09 10° WSW 23:24:07 30° WNW 23:29:06 10° N visible
31 May 4.0 21:21:40 10° SSE 21:26:36 31° ESE 21:31:33 10° NE visible
31 May 5.0 23:05:37 10° WSW 23:10:37 30° WNW 23:15:39 10° N visible
01 Jun 4.0 21:08:13 10° SSE 21:13:07 30° ESE 21:18:02 10° NE visible
01 Jun 5.0 22:52:04 10° SW 22:57:07 31° WNW 23:02:12 10° N visible
02 Jun 4.1 20:54:47 10° SSE 20:59:38 29° ESE 21:04:30 10° NE visible
02 Jun 5.0 22:38:33 10° SW 22:43:37 32° WNW 22:48:44 10° N visible
03 Jun 5.0 22:25:01 10° SW 22:30:07 33° WNW 22:35:16 10° N visible
04 Jun 5.0 22:11:28 10° SW 22:16:37 34° WNW 22:21:48 10° N visible
05 Jun 5.0 21:57:56 10° SW 22:03:07 34° WNW 22:08:19 10° N visible
